(°C)
10°
11°
(°C)
ESE
SE
ESE
ESE
ESE
SE
ESE
(km/h)
11-29
12-34
14-34
15-34
15-34
16-33
16-34
(mm)
0
0
0
0
0
0
0
(%)
0
0
0
0
0
0
0

Wysokość słońca

/ 14.7°
sun-icon
UV 1
05:59
18:19
Ubywający Księżyc garbaty (209°)
18:45
08:53

METAR dla 64.6°N 40.72°E (ULAA)

Czas Warunki Temperatura/
Punkt rosy
Wiatr Widzialność Pogoda Chmury Ciśn. atm. Zmień Surowy
VFR 4°C / 2°C 180º variable 130º to 230º 8kt >10km - Clouds and Visibility OK 1021 No Significant change ULAA 230500Z 18004MPS 130V230 CAVOK 04/02 Q1021 R08/CLRD70 NOSIG RMK QFE764/1019
VFR 3°C / 2°C 160º variable 120º to 210º 4kt >10km - Clouds and Visibility OK 1021 No Significant change ULAA 230430Z 16002MPS 120V210 CAVOK 03/02 Q1021 R08/CLRD70 NOSIG RMK QFE764/1019
VFR 2°C / 1°C 140º variable 100º to 180º 4kt >10km - Clouds and Visibility OK 1021 No Significant change ULAA 230400Z 14002MPS 100V180 CAVOK 02/01 Q1021 R08/CLRD70 NOSIG RMK QFE765/1020
VFR 0°C / 0°C 120º variable 090º to 170º 4kt >10km - Clouds and Visibility OK 1021 No Significant change ULAA 230330Z 12002MPS 090V170 CAVOK 00/M00 Q1021 R08/CLRD70 NOSIG RMK QFE765/1020
VFR -1°C / -2°C 110º 4kt >10km - Clouds and Visibility OK 1021 No Significant change ULAA 230300Z 11002MPS CAVOK M01/M02 Q1021 R08/CLRD70 NOSIG RMK QFE765/1020
VFR -2°C / -2°C 100º 4kt >10km - Clouds and Visibility OK 1021 No Significant change ULAA 230230Z 10002MPS CAVOK M02/M02 Q1021 R08/CLRD70 NOSIG RMK QFE765/1020
VFR -1°C / -2°C 100º 4kt >10km - Clouds and Visibility OK 1022 No Significant change ULAA 230200Z 10002MPS CAVOK M01/M02 Q1022 R08/CLRD70 NOSIG RMK QFE765/1020
VFR -1°C / -2°C 110º 4kt >10km - Clouds and Visibility OK 1022 No Significant change ULAA 230130Z 11002MPS CAVOK M01/M02 Q1022 R08/CLRD70 NOSIG RMK QFE765/1021
VFR 0°C / -1°C 110º variable 090º to 150º 4kt >10km - Clouds and Visibility OK 1022 No Significant change ULAA 230100Z 11002MPS 090V150 CAVOK M00/M01 Q1022 R08/CLRD70 NOSIG RMK QFE766/1021
VFR 0°C / -1°C 120º 4kt >10km - Clouds and Visibility OK 1023 No Significant change ULAA 230030Z 12002MPS CAVOK M00/M01 Q1023 R08/CLRD70 NOSIG RMK QFE766/1021
VFR -1°C / -2°C 110º 4kt >10km - Clouds and Visibility OK 1023 No Significant change ULAA 230000Z 11002MPS CAVOK M01/M02 Q1023 R08/CLRD70 NOSIG RMK QFE766/1022
VFR -1°C / -1°C 100º 4kt >10km - Clouds and Visibility OK 1023 No Significant change ULAA 222330Z 10002MPS CAVOK M01/M01 Q1023 R08/CLRD70 NOSIG RMK QFE766/1022
VFR -1°C / -2°C 110º 4kt >10km - Clouds and Visibility OK 1023 No Significant change ULAA 222300Z 11002MPS CAVOK M01/M02 Q1023 R08/CLRD70 NOSIG RMK QFE766/1022
VFR -1°C / -2°C 110º 4kt >10km - Clouds and Visibility OK 1023 No Significant change ULAA 222230Z 11002MPS CAVOK M01/M02 Q1023 R08/CLRD70 NOSIG RMK QFE766/1022
VFR -1°C / -2°C 110º 4kt >10km - Clouds and Visibility OK 1023 No Significant change ULAA 222200Z 11002MPS CAVOK M01/M02 Q1023 R08/CLRD70 NOSIG RMK QFE767/1022
VFR -1°C / -2°C 110º 4kt >10km - Clouds and Visibility OK 1024 No Significant change ULAA 222130Z 11002MPS CAVOK M01/M02 Q1024 R08/CLRD70 NOSIG RMK QFE767/1022
VFR -1°C / -2°C variable 0kt >10km - Clouds and Visibility OK 1024 No Significant change ULAA 222100Z 00000MPS CAVOK M01/M02 Q1024 R08/CLRD70 NOSIG RMK QFE767/1022
VFR -1°C / -2°C 120º 4kt >10km - Clouds and Visibility OK 1024 No Significant change ULAA 222030Z 12002MPS CAVOK M01/M02 Q1024 R08/CLRD70 NOSIG RMK QFE767/1023
VFR 0°C / -1°C 90º 4kt >10km - Clouds and Visibility OK 1024 No Significant change ULAA 222000Z 09002MPS CAVOK 00/M01 Q1024 R08/CLRD70 NOSIG RMK QFE767/1023
VFR 0°C / -1°C 100º 4kt >10km - Clouds and Visibility OK 1024 No Significant change ULAA 221930Z 10002MPS CAVOK M00/M01 Q1024 R08/CLRD70 NOSIG RMK QFE767/1023
VFR 0°C / -1°C 90º 4kt >10km - Clouds and Visibility OK 1024 No Significant change ULAA 221900Z 09002MPS CAVOK 00/M01 Q1024 R08/CLRD70 NOSIG RMK QFE767/1023
VFR 1°C / -1°C 110º 4kt >10km - Clouds and Visibility OK 1024 No Significant change ULAA 221830Z 11002MPS CAVOK 01/M01 Q1024 R08/CLRD70 NOSIG RMK QFE767/1023
VFR 2°C / 0°C 130º variable 090º to 150º 4kt >10km - Clouds and Visibility OK 1025 No Significant change ULAA 221800Z 13002MPS 090V150 CAVOK 02/M00 Q1025 R08/CLRD70 NOSIG RMK QFE767/1023
VFR 2°C / 0°C 120º 4kt >10km - Clouds and Visibility OK 1025 No Significant change ULAA 221730Z 12002MPS CAVOK 02/00 Q1025 R08/CLRD70 NOSIG RMK QFE767/1023

VFR

4°C / 2°C

[Więcej]
Wiatr 180º variable 130º to 230º 8kt
Widzialność >10km
Pogoda -
Chmury Clouds and Visibility OK
Ciśn. atm. 1021
Zmień No Significant change
Surowy ULAA 230500Z 18004MPS 130V230 CAVOK 04/02 Q1021 R08/CLRD70 NOSIG RMK QFE764/1019

VFR

3°C / 2°C

[Więcej]
Wiatr 160º variable 120º to 210º 4kt
Widzialność >10km
Pogoda -
Chmury Clouds and Visibility OK
Ciśn. atm. 1021
Zmień No Significant change
Surowy ULAA 230430Z 16002MPS 120V210 CAVOK 03/02 Q1021 R08/CLRD70 NOSIG RMK QFE764/1019

VFR

2°C / 1°C

[Więcej]
Wiatr 140º variable 100º to 180º 4kt
Widzialność >10km
Pogoda -
Chmury Clouds and Visibility OK
Ciśn. atm. 1021
Zmień No Significant change
Surowy ULAA 230400Z 14002MPS 100V180 CAVOK 02/01 Q1021 R08/CLRD70 NOSIG RMK QFE765/1020

VFR

0°C / 0°C

[Więcej]
Wiatr 120º variable 090º to 170º 4kt
Widzialność >10km
Pogoda -
Chmury Clouds and Visibility OK
Ciśn. atm. 1021
Zmień No Significant change
Surowy ULAA 230330Z 12002MPS 090V170 CAVOK 00/M00 Q1021 R08/CLRD70 NOSIG RMK QFE765/1020

VFR

-1°C / -2°C

[Więcej]
Wiatr 110º 4kt
Widzialność >10km
Pogoda -
Chmury Clouds and Visibility OK
Ciśn. atm. 1021
Zmień No Significant change
Surowy ULAA 230300Z 11002MPS CAVOK M01/M02 Q1021 R08/CLRD70 NOSIG RMK QFE765/1020

VFR

-2°C / -2°C

[Więcej]
Wiatr 100º 4kt
Widzialność >10km
Pogoda -
Chmury Clouds and Visibility OK
Ciśn. atm. 1021
Zmień No Significant change
Surowy ULAA 230230Z 10002MPS CAVOK M02/M02 Q1021 R08/CLRD70 NOSIG RMK QFE765/1020

VFR

-1°C / -2°C

[Więcej]
Wiatr 100º 4kt
Widzialność >10km
Pogoda -
Chmury Clouds and Visibility OK
Ciśn. atm. 1022
Zmień No Significant change
Surowy ULAA 230200Z 10002MPS CAVOK M01/M02 Q1022 R08/CLRD70 NOSIG RMK QFE765/1020

VFR

-1°C / -2°C

[Więcej]
Wiatr 110º 4kt
Widzialność >10km
Pogoda -
Chmury Clouds and Visibility OK
Ciśn. atm. 1022
Zmień No Significant change
Surowy ULAA 230130Z 11002MPS CAVOK M01/M02 Q1022 R08/CLRD70 NOSIG RMK QFE765/1021

VFR

0°C / -1°C

[Więcej]
Wiatr 110º variable 090º to 150º 4kt
Widzialność >10km
Pogoda -
Chmury Clouds and Visibility OK
Ciśn. atm. 1022
Zmień No Significant change
Surowy ULAA 230100Z 11002MPS 090V150 CAVOK M00/M01 Q1022 R08/CLRD70 NOSIG RMK QFE766/1021

VFR

0°C / -1°C

[Więcej]
Wiatr 120º 4kt
Widzialność >10km
Pogoda -
Chmury Clouds and Visibility OK
Ciśn. atm. 1023
Zmień No Significant change
Surowy ULAA 230030Z 12002MPS CAVOK M00/M01 Q1023 R08/CLRD70 NOSIG RMK QFE766/1021

VFR

-1°C / -2°C

[Więcej]
Wiatr 110º 4kt
Widzialność >10km
Pogoda -
Chmury Clouds and Visibility OK
Ciśn. atm. 1023
Zmień No Significant change
Surowy ULAA 230000Z 11002MPS CAVOK M01/M02 Q1023 R08/CLRD70 NOSIG RMK QFE766/1022

VFR

-1°C / -1°C

[Więcej]
Wiatr 100º 4kt
Widzialność >10km
Pogoda -
Chmury Clouds and Visibility OK
Ciśn. atm. 1023
Zmień No Significant change
Surowy ULAA 222330Z 10002MPS CAVOK M01/M01 Q1023 R08/CLRD70 NOSIG RMK QFE766/1022

VFR

-1°C / -2°C

[Więcej]
Wiatr 110º 4kt
Widzialność >10km
Pogoda -
Chmury Clouds and Visibility OK
Ciśn. atm. 1023
Zmień No Significant change
Surowy ULAA 222300Z 11002MPS CAVOK M01/M02 Q1023 R08/CLRD70 NOSIG RMK QFE766/1022

VFR

-1°C / -2°C

[Więcej]
Wiatr 110º 4kt
Widzialność >10km
Pogoda -
Chmury Clouds and Visibility OK
Ciśn. atm. 1023
Zmień No Significant change
Surowy ULAA 222230Z 11002MPS CAVOK M01/M02 Q1023 R08/CLRD70 NOSIG RMK QFE766/1022

VFR

-1°C / -2°C

[Więcej]
Wiatr 110º 4kt
Widzialność >10km
Pogoda -
Chmury Clouds and Visibility OK
Ciśn. atm. 1023
Zmień No Significant change
Surowy ULAA 222200Z 11002MPS CAVOK M01/M02 Q1023 R08/CLRD70 NOSIG RMK QFE767/1022

VFR

-1°C / -2°C

[Więcej]
Wiatr 110º 4kt
Widzialność >10km
Pogoda -
Chmury Clouds and Visibility OK
Ciśn. atm. 1024
Zmień No Significant change
Surowy ULAA 222130Z 11002MPS CAVOK M01/M02 Q1024 R08/CLRD70 NOSIG RMK QFE767/1022

VFR

-1°C / -2°C

[Więcej]
Wiatr variable 0kt
Widzialność >10km
Pogoda -
Chmury Clouds and Visibility OK
Ciśn. atm. 1024
Zmień No Significant change
Surowy ULAA 222100Z 00000MPS CAVOK M01/M02 Q1024 R08/CLRD70 NOSIG RMK QFE767/1022

VFR

-1°C / -2°C

[Więcej]
Wiatr 120º 4kt
Widzialność >10km
Pogoda -
Chmury Clouds and Visibility OK
Ciśn. atm. 1024
Zmień No Significant change
Surowy ULAA 222030Z 12002MPS CAVOK M01/M02 Q1024 R08/CLRD70 NOSIG RMK QFE767/1023

VFR

0°C / -1°C

[Więcej]
Wiatr 90º 4kt
Widzialność >10km
Pogoda -
Chmury Clouds and Visibility OK
Ciśn. atm. 1024
Zmień No Significant change
Surowy ULAA 222000Z 09002MPS CAVOK 00/M01 Q1024 R08/CLRD70 NOSIG RMK QFE767/1023

VFR

0°C / -1°C

[Więcej]
Wiatr 100º 4kt
Widzialność >10km
Pogoda -
Chmury Clouds and Visibility OK
Ciśn. atm. 1024
Zmień No Significant change
Surowy ULAA 221930Z 10002MPS CAVOK M00/M01 Q1024 R08/CLRD70 NOSIG RMK QFE767/1023

VFR

0°C / -1°C

[Więcej]
Wiatr 90º 4kt
Widzialność >10km
Pogoda -
Chmury Clouds and Visibility OK
Ciśn. atm. 1024
Zmień No Significant change
Surowy ULAA 221900Z 09002MPS CAVOK 00/M01 Q1024 R08/CLRD70 NOSIG RMK QFE767/1023

VFR

1°C / -1°C

[Więcej]
Wiatr 110º 4kt
Widzialność >10km
Pogoda -
Chmury Clouds and Visibility OK
Ciśn. atm. 1024
Zmień No Significant change
Surowy ULAA 221830Z 11002MPS CAVOK 01/M01 Q1024 R08/CLRD70 NOSIG RMK QFE767/1023

VFR

2°C / 0°C

[Więcej]
Wiatr 130º variable 090º to 150º 4kt
Widzialność >10km
Pogoda -
Chmury Clouds and Visibility OK
Ciśn. atm. 1025
Zmień No Significant change
Surowy ULAA 221800Z 13002MPS 090V150 CAVOK 02/M00 Q1025 R08/CLRD70 NOSIG RMK QFE767/1023

VFR

2°C / 0°C

[Więcej]
Wiatr 120º 4kt
Widzialność >10km
Pogoda -
Chmury Clouds and Visibility OK
Ciśn. atm. 1025
Zmień No Significant change
Surowy ULAA 221730Z 12002MPS CAVOK 02/00 Q1025 R08/CLRD70 NOSIG RMK QFE767/1023

TAF dla 64.6°N 40.72°E (ULAA)

From till


From till Wind 140º 6kt. Gust 17kt. Visibility 10km or more. Scattered Clouds 1600ft.
Temporarly from till Wind 170º 8kt. Gust 25kt.

Surowy: TAF AMD ULAA 230519Z 2305/2406 14003G09MPS 9999 SCT016 TEMPO 2305/2318 17004G13MPS

Aktualne zdjęcia satelitarne i zdjęcia opadów deszczu dla 64.6°N 40.72°E

Wskaźnik lokalizacji znajduje się na 64.6°N 40.72°E. [Więcej]

Obraz satelitarny w czasie rzeczywistym łączy światło widzialne w ciągu dnia z promieniowaniem podczerwonym w nocy. W nocy obraz nie jest ciemny, ponieważ promieniowanie podczerwone może wykrywać różnice temperatur. Niestety niskie chmury i mgłę trudno odróżnić od temperatury gruntu, przez co mogą być prawie niewidoczne w nocy. Zdjęcia satelitarne Meteosat dla Europy są aktualizowane w czasie rzeczywistym co 5 minut. Obrazy GOES-16/GOES-17 (Ameryka Północna i Południowa) oraz Himawari (Azja) są aktualizowane co 10 minut.

Prawa autorskie 2021 EUMETSAT / meteoblue. / Prawa autorskie 2021 meteoblue

Radar i prognoza opadów na teraz dla 64.6°N 40.72°E

Mżawka
Lekki
Umiarkowane
Ulewne
Bardzo ciężkie
Grad

Wskaźnik lokalizacji jest umieszczony na 64.6°N 40.72°E. Animacja przedstawia radar opadów dla ostatniej godziny, jak również 1h prognozę pogody. Mżawka lub lekki opad śniegu może być niewidoczny dla radaru. Intensywność opadów jest oznaczona kolorami, od jasnoniebieskiego do pomarańczowego.